RH
83 76 73 75 71 74 71 58 66 61 58 57 57 60 62 62 62 61 64 63 68 74 76 76 76 80 90
82 81 79 76 78 75 58 53 67 53 57 60 63 64 63 63 62 62 64 63 69 76 77 79 79 79 90
86 85 84 80 76 73 71 78 56 59 56 65 66 66 65 62 61 66 67 66 66 74 77 80 82 83 85
86 83 84 80 83 85 86 83 80 60 64 60 61 61 61 60 63 65 64 65 67 72 73 77 82 84 87
92 92 88 88 90 90 80 80 78 80 84 73 67 68 65 64 66 62 63 62 67 68 70 73 76 82 85
93 97 90 89 88 85 85 84 79 79 78 77 77 74 71 72 63 62 62 64 66 68 68 69 73 78 82
87 85 86 79 80 84 84 87 85 79 85 83 81 81 73 60 68 66 67 64 66 66 67 68 71 76 82
72 75 77 75 82 74 78 85 89 85 86 91 76 81 78 75 67 68 60 58 61 65 64 66 67 73 80
61 60 58 58 59 77 95 98 89 79 85 90 88 88 88 84 72 60 62 60 63 60 60 61 65 73 83
77 75 71 74 66 77 90 94 92 97 78 88 83 92 91 84 75 70 83 67 65 60 61 61 70 78 84
83 88 87 89 87 85 85 92 96 92 75 89 98 92 95 90 89 81 78 80 74 77 68 70 69 67 83
94 96 96 94 90 89 88 90 89 84 78 92 96 96 98 91 84 83 80 80 86 80 83 74 69 68 71
96 95 90 89 87 87 83 85 89 88 78 92 95 95 98 94 88 79 77 80 83 89 79 84 86 83 88
95 86 86 84 84 85 95 92 98 87 84 89 92 96 97 86 84 89 78 87 81 85 90 86 88 89 91
88 86 85 87 88 90 95 96 99 94 90 94 87 93 94 87 88 89 92 90 83 83 86 86 86 89 89
89 90 83 82 80 86 93 97 96 94 94 96 97 98 98 92 84 92 93 94 88 88 87 96 93 85 86
86 88 84 83 77 87 84 88 93 96 96 94 98 99 96 90 79 71 95 91 92 95 92 96 94 82 83
Wind_Speed
1 2 3 5 6 6 7 9 6 18 22 21 20 18 19 22 21 22 21 25 25 25 26 26 24 25 26
2 2 2 4 4 5 7 7 7 15 20 19 17 18 20 21 23 22 20 23 24 24 25 26 26 25 24
4 1 2 2 5 3 4 5 7 15 17 14 17 19 20 22 23 21 21 23 22 23 24 25 25 25 20
3 4 2 3 3 4 5 2 6 7 9 12 17 18 18 21 21 20 22 22 22 22 23 23 24 26 23
2 3 4 2 4 3 6 6 5 3 3 6 8 8 8 11 14 18 21 22 21 20 22 23 24 24 25
2 3 4 3 2 3 3 5 5 2 6 7 5 8 8 6 16 19 20 18 16 19 21 23 24 25 25
3 4 3 4 2 3 4 3 5 6 4 7 2 6 7 9 18 19 13 14 16 19 22 23 25 26 25
5 7 7 7 5 6 6 5 4 5 2 5 5 7 6 8 15 10 11 17 17 19 22 24 25 25 24
14 15 16 17 13 3 3 2 5 6 1 2 3 5 3 4 4 16 17 18 15 19 22 23 25 23 15
5 7 9 8 15 6 3 3 3 3 2 1 4 3 4 3 4 6 5 11 17 20 19 21 20 9 9
4 4 5 5 5 5 5 4 3 5 9 1 2 2 3 5 3 5 6 5 7 7 14 15 17 17 9
3 4 4 4 5 5 6 5 5 9 9 3 3 3 2 7 9 3 6 6 4 6 5 9 15 16 17
3 3 3 4 4 4 5 6 6 6 7 5 4 3 3 5 8 9 10 6 7 3 8 6 5 6 9
3 3 3 3 3 3 2 3 1 6 6 7 6 5 3 5 5 7 6 6 6 6 5 6 4 4 4
2 3 3 2 3 3 3 3 2 4 6 3 5 5 6 6 5 6 5 6 7 6 5 7 5 4 4
3 3 4 4 5 4 3 3 4 4 5 3 2 3 3 4 11 7 6 6 6 5 5 3 5 3 4
4 4 5 5 7 5 5 5 4 4 4 4 2 2 7 9 4 12 6 6 5 4 5 4 5 5 5
Wind_Direction
260 301 328 332 329 339 339 334 342 346 347 350 346 353 359 353 354 358 358 356 355 355 354 354 347 348 345
292 309 317 330 332 347 332 336 340 340 344 347 352 1 360 356 353 349 353 354 354 356 356 354 354 348 345
309 311 297 331 323 316 322 316 330 337 339 4 357 356 352 346 344 346 350 347 351 353 355 353 351 348 344
302 311 305 317 319 324 341 337 330 327 327 346 345 341 339 334 333 334 341 343 349 351 353 352 351 351 348
270 291 308 332 336 321 313 313 311 290 329 328 324 321 321 323 315 328 334 338 341 352 354 355 351 349 347
252 242 280 284 255 284 297 318 330 319 329 314 304 310 307 305 312 326 326 330 346 358 357 354 353 348 343
245 255 253 261 253 267 259 260 281 293 311 306 284 291 298 300 313 322 327 7 4 357 357 355 353 347 342
243 254 244 256 226 251 265 268 269 276 245 290 318 305 296 295 315 351 29 358 354 353 353 349 348 344 340
283 289 297 302 303 276 239 203 289 291 241 259 306 314 294 289 318 350 353 351 349 346 345 342 343 345 338
283 288 291 286 293 278 232 236 256 298 252 248 300 327 319 295 332 331 333 336 341 333 337 340 341 344 341
252 261 276 275 274 267 236 195 215 246 273 227 249 277 222 300 299 313 307 322 323 316 329 335 343 347 338
263 258 262 268 271 272 273 255 234 241 267 185 231 201 210 294 298 310 317 302 302 313 317 329 333 339 339
263 251 243 253 275 276 284 270 263 258 261 219 208 234 178 273 297 303 314 315 304 319 326 323 316 328 330
243 253 271 274 281 270 259 278 298 295 274 246 226 178 241 253 276 285 288 287 299 300 292 308 294 292 295
266 271 264 261 271 260 250 264 217 284 292 296 266 233 237 254 261 260 269 276 278 287 298 306 300 284 290
255 258 276 275 280 270 244 243 260 272 274 266 273 330 333 280 229 260 257 263 280 283 285 286 291 279 281
262 259 269 274 295 287 282 278 272 263 256 258 232 184 282 281 273 232 236 257 271 275 266 246 276 287 277